This is the latest recevied weather packets stored in our database for station/object IZ1UQG-N2. If no packets are shown the sender has not sent any weather packets the latest 1 day(s).
| Time | Temp. | Humidity | Pressure | Rain* | Wind** | Luminosity | Snow |
|---|---|---|---|---|---|---|---|
| 1777969448 | 11.67° C | 90% | 1012.8 hPa | 1.52 mm | 1.34 m/s, 355° | 62 W/m² | - |
| 1777969392 | 11.67° C | 90% | 1012.8 hPa | 1.52 mm | 1.34 m/s, 356° | 62 W/m² | - |
| 1777969331 | 11.67° C | 90% | 1012.8 hPa | 1.78 mm | 1.34 m/s, 356° | 62 W/m² | - |
| 1777969271 | 11.67° C | 90% | 1012.8 hPa | 1.78 mm | 1.34 m/s, 357° | 65 W/m² | - |
| 1777969268 | 11.67° C | 90% | 1012.8 hPa | 1.78 mm | 1.34 m/s, 357° | 65 W/m² | - |
| 1777969210 | 11.67° C | 90% | 1012.8 hPa | 1.78 mm | 1.34 m/s, 356° | 69 W/m² | - |
| 1777969150 | 11.67° C | 90% | 1012.8 hPa | 1.78 mm | 1.34 m/s, 356° | 72 W/m² | - |
| 1777969091 | 11.67° C | 90% | 1012.7 hPa | 1.78 mm | 1.34 m/s, 356° | 72 W/m² | - |
| 1777969089 | 11.67° C | 90% | 1012.7 hPa | 1.78 mm | 1.34 m/s, 356° | 72 W/m² | - |
| 1777969031 | 11.67° C | 90% | 1012.7 hPa | 2.03 mm | 1.34 m/s, 357° | 74 W/m² | - |
| 1777968971 | 11.67° C | 90% | 1012.7 hPa | 2.29 mm | 1.34 m/s, 359° | 74 W/m² | - |
| 1777968911 | 11.67° C | 90% | 1012.6 hPa | 2.29 mm | 1.34 m/s, 359° | 74 W/m² | - |
| 1777968908 | 11.67° C | 90% | 1012.6 hPa | 2.29 mm | 1.34 m/s, 359° | 74 W/m² | - |
| 1777968850 | 11.67° C | 91% | 1012.8 hPa | 2.54 mm | 1.34 m/s, 358° | 77 W/m² | - |
| 1777968791 | 11.67° C | 91% | 1012.7 hPa | 2.54 mm | 1.34 m/s, 357° | 81 W/m² | - |
| 1777968731 | 11.67° C | 91% | 1012.7 hPa | 2.54 mm | 1.34 m/s, 355° | 84 W/m² | - |
| 1777968729 | 11.67° C | 91% | 1012.7 hPa | 2.54 mm | 1.34 m/s, 355° | 84 W/m² | - |
| 1777968671 | 11.67° C | 91% | 1012.7 hPa | 2.79 mm | 1.34 m/s, 356° | 86 W/m² | - |
| 1777968610 | 11.67° C | 91% | 1012.7 hPa | 2.79 mm | 1.34 m/s, 356° | 90 W/m² | - |
| 1777968550 | 11.67° C | 91% | 1012.6 hPa | 2.79 mm | 1.34 m/s, 356° | 88 W/m² | - |
| 1777968548 | 11.67° C | 91% | 1012.6 hPa | 2.79 mm | 1.34 m/s, 356° | 88 W/m² | - |
| 1777968492 | 11.67° C | 91% | 1012.7 hPa | 2.79 mm | 1.34 m/s, 359° | 83 W/m² | - |
| 1777968432 | 11.67° C | 91% | 1012.7 hPa | 2.79 mm | 1.34 m/s, 4° | 79 W/m² | - |
| 1777968372 | 11.67° C | 91% | 1012.7 hPa | 2.79 mm | 1.34 m/s, 5° | 79 W/m² | - |
| 1777968367 | 11.67° C | 91% | 1012.7 hPa | 2.79 mm | 1.34 m/s, 5° | 79 W/m² | - |
* Rain latest hour (hover to see other rain measurements)
** Current wind speed in m/s (hover to see current wind gust speed)